�������l�o���
Date,Time,MP-1(��Sv/h),MP-2(��Sv/h),MP-3(��Sv/h),MP-4(��Sv/h),MP-5(��Sv/h),MP-6(��Sv/h),MP-7(��Sv/h),����,����(m/s),���J
2019/01/24,00:00,0.220,0.198,0.323,0.302,0.281,0.160,0.096,�k��,10.6,��
2019/01/24,00:10,0.221,0.198,0.322,0.301,0.282,0.160,0.097,�k��,9.2,��
2019/01/24,00:20,0.220,0.198,0.322,0.301,0.282,0.161,0.096,�k��,8.4,��
2019/01/24,00:30,0.218,0.199,0.324,0.302,0.282,0.161,0.097,���k��,8.2,��
2019/01/24,00:40,0.221,0.199,0.323,0.302,0.282,0.159,0.096,���k��,8.1,��
2019/01/24,00:50,0.219,0.199,0.323,0.301,0.281,0.161,0.096,���k��,9.2,��
2019/01/24,01:00,0.220,0.198,0.323,0.302,0.281,0.160,0.096,���k��,10.3,��
2019/01/24,01:10,0.220,0.198,0.322,0.302,0.283,0.161,0.097,���k��,9.0,��
2019/01/24,01:20,0.220,0.198,0.322,0.301,0.281,0.160,0.097,�k��,10.3,��
2019/01/24,01:30,0.220,0.198,0.322,0.301,0.282,0.160,0.097,�k��,10.9,�L
2019/01/24,01:40,0.220,0.200,0.325,0.302,0.280,0.159,0.098,�k��,8.4,��
2019/01/24,01:50,0.220,0.200,0.323,0.302,0.283,0.161,0.097,�k��,7.3,�L
2019/01/24,02:00,0.220,0.199,0.324,0.301,0.281,0.161,0.098,���k��,4.8,�L
2019/01/24,02:10,0.220,0.200,0.324,0.303,0.282,0.161,0.098,���k��,4.5,��
2019/01/24,02:20,0.221,0.198,0.323,0.301,0.282,0.160,0.097,���k��,4.8,��
2019/01/24,02:30,0.220,0.200,0.324,0.301,0.282,0.160,0.097,���k��,3.0,��
2019/01/24,02:40,0.221,0.200,0.324,0.302,0.281,0.161,0.097,���k��,4.3,��
2019/01/24,02:50,0.220,0.197,0.323,0.303,0.282,0.160,0.097,�k��,4.9,�L
2019/01/24,03:00,0.219,0.198,0.323,0.302,0.281,0.162,0.097,�k��,4.5,��
2019/01/24,03:10,0.220,0.198,0.323,0.302,0.282,0.160,0.097,���k��,4.1,�L
2019/01/24,03:20,0.220,0.198,0.324,0.302,0.282,0.161,0.098,���k��,6.2,�L
2019/01/24,03:30,0.221,0.198,0.325,0.303,0.282,0.161,0.098,���k��,6.1,�L
2019/01/24,03:40,0.221,0.199,0.322,0.303,0.282,0.160,0.098,���k��,5.7,��
2019/01/24,03:50,0.220,0.199,0.323,0.302,0.283,0.160,0.098,���k��,5.3,��
2019/01/24,04:00,0.220,0.199,0.324,0.303,0.282,0.161,0.098,��,5.9,��
2019/01/24,04:10,0.220,0.199,0.325,0.302,0.283,0.161,0.097,���k��,5.5,��
2019/01/24,04:20,0.220,0.199,0.323,0.302,0.281,0.161,0.098,���k��,8.8,��
2019/01/24,04:30,0.221,0.199,0.323,0.302,0.283,0.160,0.097,���k��,8.6,��
2019/01/24,04:40,0.220,0.198,0.323,0.301,0.281,0.161,0.097,��,8.1,��
2019/01/24,04:50,0.220,0.198,0.322,0.302,0.280,0.161,0.097,��,7.0,��
2019/01/24,05:00,0.220,0.198,0.321,0.301,0.280,0.159,0.097,��,6.4,��
2019/01/24,05:10,0.219,0.199,0.325,0.301,0.281,0.160,0.096,��,6.2,��
2019/01/24,05:20,0.219,0.197,0.323,0.301,0.281,0.159,0.096,���k��,5.9,��
2019/01/24,05:30,0.219,0.198,0.322,0.301,0.280,0.160,0.097,���k��,6.2,��
2019/01/24,05:40,0.220,0.198,0.321,0.301,0.282,0.160,0.097,���k��,9.5,��
2019/01/24,05:50,0.220,0.198,0.322,0.303,0.279,0.160,0.096,���k��,7.3,��
2019/01/24,06:00,0.219,0.197,0.322,0.302,0.281,0.160,0.097,��,6.8,��
2019/01/24,06:10,0.220,0.197,0.324,0.302,0.281,0.159,0.097,��,7.0,��
2019/01/24,06:20,0.219,0.196,0.323,0.303,0.280,0.159,0.096,���k��,4.7,��
2019/01/24,06:30,0.219,0.198,0.321,0.301,0.281,0.160,0.096,�k��,5.6,��
2019/01/24,06:40,0.220,0.199,0.323,0.301,0.280,0.160,0.096,�k,3.9,��
2019/01/24,06:50,0.219,0.198,0.323,0.300,0.280,0.160,0.096,�k�k��,3.4,��
2019/01/24,07:00,0.219,0.196,0.322,0.301,0.280,0.159,0.097,�k��,2.8,��
2019/01/24,07:10,0.219,0.198,0.323,0.301,0.280,0.160,0.097,���k��,3.6,��
2019/01/24,07:20,0.219,0.197,0.323,0.302,0.280,0.159,0.096,��,6.1,��
2019/01/24,07:30,0.219,0.198,0.323,0.302,0.281,0.160,0.096,���k��,4.3,��
2019/01/24,07:40,0.219,0.197,0.322,0.300,0.279,0.160,0.097,���k��,2.5,��
2019/01/24,07:50,0.220,0.198,0.321,0.301,0.280,0.160,0.097,���k��,1.4,��
2019/01/24,08:00,0.219,0.198,0.321,0.300,0.280,0.160,0.096,���k��,1.9,��
2019/01/24,08:10,0.219,0.196,0.323,0.301,0.280,0.159,0.096,�k��,2.1,��
2019/01/24,08:20,0.219,0.197,0.321,0.299,0.280,0.160,0.096,���k��,3.1,��
2019/01/24,08:30,0.218,0.198,0.322,0.301,0.279,0.159,0.096,���k��,5.0,��
2019/01/24,08:40,0.218,0.198,0.320,0.300,0.280,0.159,0.096,���k��,3.9,��
2019/01/24,08:50,0.220,0.198,0.322,0.300,0.281,0.159,0.095,���k��,6.8,��
2019/01/24,09:00,0.219,0.198,0.322,0.300,0.280,0.159,0.095,���k��,8.4,��
2019/01/24,09:10,0.218,0.197,0.321,0.301,0.281,0.159,0.096,���k��,7.7,��
2019/01/24,09:20,0.219,0.198,0.322,0.300,0.280,0.159,0.097,���k��,4.2,��
2019/01/24,09:30,0.219,0.197,0.322,0.300,0.280,0.159,0.095,��,5.4,��
2019/01/24,09:40,0.219,0.198,0.322,0.301,0.281,0.160,0.095,��,9.8,��
2019/01/24,09:50,0.218,0.198,0.322,0.299,0.280,0.160,0.096,���k��,9.3,��
2019/01/24,10:00,0.218,0.197,0.323,0.299,0.282,0.160,0.096,���k��,7.0,��
2019/01/24,10:10,0.217,0.197,0.323,0.302,0.280,0.160,0.096,��,8.1,��
2019/01/24,10:20,0.218,0.197,0.322,0.300,0.280,0.160,0.096,���k��,10.0,��
2019/01/24,10:30,0.217,0.197,0.322,0.300,0.282,0.160,0.096,���k��,7.4,��
2019/01/24,10:40,0.217,0.197,0.323,0.302,0.281,0.160,0.096,���k��,7.9,��
2019/01/24,10:50,0.217,0.197,0.321,0.299,0.282,0.160,0.096,���k��,9.3,��
2019/01/24,11:00,0.218,0.197,0.323,0.301,0.280,0.160,0.096,���k��,8.8,��
2019/01/24,11:10,0.218,0.196,0.323,0.301,0.281,0.160,0.096,���k��,9.3,��
2019/01/24,11:20,0.218,0.197,0.323,0.300,0.281,0.161,0.097,�k��,10.6,��
2019/01/24,11:30,0.219,0.198,0.323,0.301,0.281,0.160,0.096,�k��,12.0,��
2019/01/24,11:40,0.219,0.198,0.323,0.302,0.280,0.160,0.097,�k��,7.8,��
2019/01/24,11:50,0.218,0.199,0.323,0.299,0.283,0.159,0.096,���k��,7.1,��
2019/01/24,12:00,0.220,0.197,0.323,0.301,0.279,0.160,0.097,��,12.0,��
2019/01/24,12:10,0.218,0.197,0.323,0.299,0.281,0.160,0.095,���k��,10.3,��
2019/01/24,12:20,0.220,0.197,0.321,0.300,0.281,0.160,0.096,��,9.2,��
2019/01/24,12:30,0.219,0.198,0.322,0.301,0.281,0.160,0.096,��,10.6,��
2019/01/24,12:40,0.218,0.197,0.322,0.300,0.280,0.161,0.095,���k��,12.8,��
2019/01/24,12:50,0.220,0.197,0.320,0.300,0.280,0.160,0.096,��,10.3,��
2019/01/24,13:00,0.219,0.196,0.321,0.301,0.283,0.160,0.096,���k��,9.2,��
2019/01/24,13:10,0.218,0.197,0.321,0.300,0.280,0.160,0.096,���k��,12.3,��
2019/01/24,13:20,0.220,0.198,0.322,0.302,0.281,0.161,0.097,���k��,10.3,��
2019/01/24,13:30,0.218,0.197,0.322,0.300,0.281,0.160,0.096,���k��,10.1,��
2019/01/24,13:40,0.218,0.197,0.322,0.300,0.283,0.161,0.096,���k��,9.5,��
2019/01/24,13:50,0.219,0.197,0.321,0.300,0.283,0.161,0.096,���k��,9.2,��
2019/01/24,14:00,0.218,0.197,0.322,0.302,0.282,0.160,0.096,�k��,8.4,��
2019/01/24,14:10,0.220,0.197,0.323,0.302,0.281,0.160,0.096,���k��,12.9,��
2019/01/24,14:20,0.220,0.198,0.323,0.300,0.281,0.160,0.096,���k��,10.7,��
2019/01/24,14:30,0.220,0.198,0.324,0.301,0.282,0.159,0.095,�k��,10.6,��
2019/01/24,14:40,0.219,0.197,0.323,0.303,0.282,0.159,0.096,���k��,9.2,��
2019/01/24,14:50,0.219,0.196,0.321,0.302,0.282,0.159,0.096,�k��,11.2,��
2019/01/24,15:00,0.220,0.197,0.323,0.301,0.283,0.160,0.096,���k��,9.8,��
2019/01/24,15:10,0.220,0.197,0.322,0.303,0.283,0.160,0.097,���k��,9.0,��
2019/01/24,15:20,0.220,0.198,0.324,0.303,0.283,0.160,0.097,���k��,8.6,��
2019/01/24,15:30,0.219,0.199,0.323,0.302,0.283,0.160,0.096,���k��,7.6,��
2019/01/24,15:40,0.219,0.198,0.323,0.303,0.283,0.160,0.097,�k��,7.3,��
2019/01/24,15:50,0.220,0.199,0.325,0.302,0.282,0.161,0.096,�k��,6.3,��
2019/01/24,16:00,0.221,0.198,0.324,0.302,0.282,0.159,0.097,�k��,8.2,��
2019/01/24,16:10,0.219,0.198,0.322,0.301,0.282,0.161,0.097,�k�k��,5.8,��
2019/01/24,16:20,0.219,0.197,0.324,0.301,0.281,0.160,0.096,�k��,5.8,��
2019/01/24,16:30,0.219,0.199,0.323,0.302,0.280,0.160,0.096,�k�k��,5.2,��
2019/01/24,16:40,0.220,0.199,0.322,0.301,0.281,0.159,0.097,�k�k��,7.6,��
2019/01/24,16:50,0.220,0.198,0.324,0.303,0.281,0.161,0.097,�k��,8.4,��
2019/01/24,17:00,0.220,0.198,0.323,0.300,0.281,0.160,0.097,�k��,7.8,��
2019/01/24,17:10,0.221,0.199,0.322,0.302,0.281,0.160,0.096,�k��,8.4,��
2019/01/24,17:20,0.220,0.198,0.324,0.301,0.281,0.160,0.096,�k�k��,6.4,��
2019/01/24,17:30,0.220,0.198,0.323,0.303,0.282,0.159,0.097,�k�k��,6.6,��
2019/01/24,17:40,0.220,0.198,0.322,0.301,0.280,0.159,0.097,�k�k��,7.0,��
2019/01/24,17:50,0.220,0.199,0.323,0.302,0.281,0.160,0.097,�k�k��,5.2,��
2019/01/24,18:00,0.221,0.199,0.321,0.302,0.281,0.160,0.096,�k,6.4,��
2019/01/24,18:10,0.219,0.198,0.323,0.301,0.281,0.160,0.096,�k�k��,5.7,��
2019/01/24,18:20,0.220,0.198,0.322,0.301,0.282,0.159,0.097,�k�k��,6.4,��
2019/01/24,18:30,0.220,0.197,0.323,0.302,0.281,0.160,0.097,�k��,6.4,��
2019/01/24,18:40,0.219,0.199,0.323,0.303,0.282,0.160,0.097,�k��,5.0,��
2019/01/24,18:50,0.220,0.197,0.322,0.301,0.280,0.160,0.096,�k��,3.4,��
2019/01/24,19:00,0.220,0.198,0.323,0.301,0.281,0.160,0.096,�k��,2.4,��
2019/01/24,19:10,0.219,0.199,0.322,0.302,0.282,0.160,0.096,���k��,2.9,��
2019/01/24,19:20,0.219,0.197,0.323,0.302,0.280,0.160,0.096,�k��,3.3,��
2019/01/24,19:30,0.221,0.199,0.324,0.303,0.281,0.159,0.097,�k��,2.3,��
2019/01/24,19:40,0.220,0.197,0.323,0.302,0.280,0.159,0.096,�k,3.6,��
2019/01/24,19:50,0.220,0.197,0.323,0.302,0.282,0.161,0.096,�k��,3.4,��
2019/01/24,20:00,0.220,0.198,0.323,0.302,0.280,0.160,0.096,�k��,2.4,��
2019/01/24,20:10,0.220,0.198,0.323,0.302,0.282,0.160,0.096,�k�k��,2.6,��
2019/01/24,20:20,0.220,0.198,0.323,0.302,0.281,0.160,0.097,��,2.0,��
2019/01/24,20:30,0.220,0.197,0.323,0.301,0.280,0.160,0.097,�k��,2.1,��
2019/01/24,20:40,0.219,0.199,0.324,0.301,0.280,0.160,0.096,�k�k��,0.8,��
2019/01/24,20:50,0.219,0.198,0.322,0.301,0.281,0.160,0.097,���k��,2.1,��
2019/01/24,21:00,0.219,0.197,0.322,0.302,0.281,0.161,0.096,�k�k��,0.9,��
2019/01/24,21:10,0.219,0.198,0.322,0.301,0.281,0.159,0.096,�k��,1.4,��
2019/01/24,21:20,0.219,0.197,0.323,0.302,0.282,0.159,0.096,���k��,3.4,��
2019/01/24,21:30,0.219,0.197,0.323,0.302,0.280,0.159,0.096,�k��,1.8,��
2019/01/24,21:40,0.220,0.198,0.322,0.302,0.280,0.159,0.096,�k�k��,1.0,��
2019/01/24,21:50,0.220,0.197,0.322,0.303,0.281,0.160,0.097,�k�k��,1.4,��
2019/01/24,22:00,0.220,0.198,0.323,0.301,0.279,0.160,0.096,�k�k��,0.8,��
2019/01/24,22:10,0.219,0.198,0.322,0.301,0.280,0.159,0.096,�k�k��,1.4,��
2019/01/24,22:20,0.220,0.198,0.321,0.301,0.280,0.161,0.097,�k,1.0,��
2019/01/24,22:30,0.220,0.198,0.323,0.301,0.280,0.160,0.096,�k,0.9,��
2019/01/24,22:40,0.220,0.197,0.323,0.302,0.280,0.160,0.097,�k�k��,1.9,��
2019/01/24,22:50,0.220,0.199,0.322,0.301,0.280,0.159,0.096,�k�k��,1.8,��
2019/01/24,23:00,0.221,0.198,0.323,0.302,0.281,0.159,0.096,���k��,1.5,��
2019/01/24,23:10,0.221,0.198,0.323,0.300,0.280,0.160,0.096,�k��,1.2,��
2019/01/24,23:20,0.220,0.199,0.324,0.301,0.280,0.160,0.097,�k��,1.8,��
2019/01/24,23:30,0.220,0.199,0.323,0.303,0.281,0.159,0.097,�k,1.8,��
2019/01/24,23:40,0.220,0.198,0.321,0.301,0.280,0.160,0.096,�k�k��,2.3,��
2019/01/24,23:50,0.219,0.197,0.322,0.301,0.281,0.160,0.097,�k,1.6,��
